{"data":{"norad_id":56716,"intl_designator":"2023-068G","name":"ONEWEB-0680","alt_names":[],"object_type":"PAYLOAD","status":"ACTIVE","operator":null,"country":"UK","launch_date":"2023-05-20","launch_site_code":"AFWTR","launch_vehicle":null,"mission":null,"orbit_class":"UNKNOWN","rcs_meters":null,"size_class":null,"mass_kg":null,"dimensions":null,"purposes":["comms"],"wikipedia_slug":null,"has_3d_model":false,"image_url":null,"decayed_at":null,"tle_current":{"epoch":"2026-05-25T00:12:14.096736Z","epoch_age_seconds":70518,"freshness":"FRESH","line1":"1 56716U 23068G   26145.00849649  .00000033  00000+0  49081-4 0  9993","line2":"2 56716  87.9261 248.5809 0002388 112.1743 247.9645 13.21824234148039","mean_motion":13.21824234,"eccentricity":0.0002388,"inclination_deg":87.9261,"raan_deg":248.5809,"arg_perigee_deg":112.1743,"mean_anomaly_deg":247.9645,"bstar":4.9081e-5,"rev_number":14803,"period_min":108.94035401684,"perigee_km":1175.9557500822,"apogee_km":1179.5644465363,"semimajor_km":7555.8970983092,"source":"CELESTRAK","updated_at":"2026-05-25T13:38:22.743502Z"}}}